When you browse on this site, cookies collect data to enhance your experience and personalize the content and advertising you see.
Visit our Privacy Policy to learn more. By continuing to use the site, you agree to this use of cookies and data.
  • în România
  • Lista ţărilor
  • Pe 7 zile
  • Temperatura apei
  • Hartă satelitară
  • Meteo pe hartă
  • Widget-uri
  • user-avatar
    Intrare

    Meteo pe oră la Arroyo

    Astăzi, 21 Iulie, Duminică

    Timp Temperatura Precipitaţii Vânt Presiune Umiditate
    00:00 +25°C° 0 mm 1 m/s 696 mmHg 47%
    01:00 +24°C° 0 mm 1 m/s 696 mmHg 48%
    02:00 +24°C° 0 mm 1 m/s 695 mmHg 49%
    03:00 +23°C° 0 mm 1 m/s 695 mmHg 49%
    04:00 +23°C° 0 mm 1 m/s 695 mmHg 49%
    05:00 +24°C° 0 mm 1 m/s 696 mmHg 49%
    06:00 +23°C° 0 mm 0 m/s 696 mmHg 46%
    07:00 +28°C° 0 mm 1 m/s 697 mmHg 40%
    08:00 +30°C° 0 mm 1 m/s 697 mmHg 34%
    09:00 +33°C° 0 mm 1 m/s 698 mmHg 27%
    10:00 +36°C° 0 mm 2 m/s 698 mmHg 24%
    11:00 +38°C° 0 mm 2 m/s 699 mmHg 21%
    12:00 +40°C° 0 mm 3 m/s 699 mmHg 17%
    13:00 +41°C° 0 mm 4 m/s 699 mmHg 17%
    14:00 +41°C° 0 mm 4 m/s 698 mmHg 16%
    15:00 +42°C° 0 mm 4 m/s 698 mmHg 15%
    16:00 +40°C° 0.1 mm 5 m/s 698 mmHg 18%
    17:00 +37°C° 0.1 mm 5 m/s 697 mmHg 21%
    18:00 +35°C° 0.1 mm 5 m/s 697 mmHg 24%
    19:00 +32°C° 0.2 mm 5 m/s 697 mmHg 31%
    20:00 +29°C° 0.2 mm 4 m/s 697 mmHg 37%
    21:00 +26°C° 0.2 mm 3 m/s 698 mmHg 44%
    22:00 +25°C° 0.1 mm 3 m/s 698 mmHg 45%
    23:00 +24°C° 0.1 mm 2 m/s 698 mmHg 45%

    Mâine, 22 Iulie, Luni

    Timp Temperatura Precipitaţii Vânt Presiune Umiditate
    00:00 +23°C° 0.1 mm 2 m/s 698 mmHg 46%
    01:00 +23°C° 0 mm 2 m/s 697 mmHg 46%
    02:00 +22°C° 0 mm 1 m/s 697 mmHg 47%
    03:00 +22°C° 0 mm 1 m/s 697 mmHg 48%
    04:00 +22°C° 0 mm 1 m/s 697 mmHg 47%
    05:00 +22°C° 0 mm 1 m/s 697 mmHg 46%
    06:00 +23°C° 0 mm 1 m/s 697 mmHg 46%
    07:00 +26°C° 0 mm 2 m/s 698 mmHg 38%
    08:00 +29°C° 0 mm 2 m/s 698 mmHg 31%
    09:00 +32°C° 0 mm 2 m/s 699 mmHg 23%
    10:00 +35°C° 0 mm 2 m/s 699 mmHg 22%
    11:00 +37°C° 0 mm 3 m/s 699 mmHg 20%
    12:00 +40°C° 0 mm 4 m/s 699 mmHg 18%
    13:00 +40°C° 0 mm 5 m/s 699 mmHg 17%
    14:00 +41°C° 0 mm 5 m/s 698 mmHg 17%
    15:00 +41°C° 0 mm 6 m/s 698 mmHg 17%
    16:00 +39°C° 0.1 mm 6 m/s 698 mmHg 19%
    17:00 +38°C° 0.1 mm 6 m/s 697 mmHg 21%
    18:00 +35°C° 0.1 mm 6 m/s 697 mmHg 23%
    19:00 +32°C° 0.2 mm 4 m/s 697 mmHg 29%
    20:00 +29°C° 0.2 mm 3 m/s 697 mmHg 36%
    21:00 +26°C° 0.2 mm 1 m/s 697 mmHg 43%
    22:00 +25°C° 0 mm 2 m/s 697 mmHg 42%
    23:00 +24°C° 0 mm 2 m/s 697 mmHg 41%

    Poimâine, 23 Iulie, Marţi

    Timp Temperatura Precipitaţii Vânt Presiune Umiditate
    00:00 +24°C° 0 mm 2 m/s 696 mmHg 40%
    01:00 +23°C° 0 mm 2 m/s 696 mmHg 40%
    02:00 +23°C° 0 mm 2 m/s 696 mmHg 40%
    03:00 +21°C° 0 mm 2 m/s 696 mmHg 40%
    04:00 +22°C° 0 mm 1 m/s 696 mmHg 39%
    05:00 +22°C° 0 mm 1 m/s 695 mmHg 38%
    06:00 +23°C° 0 mm 1 m/s 695 mmHg 36%
    07:00 +26°C° 0 mm 2 m/s 696 mmHg 29%
    08:00 +30°C° 0 mm 2 m/s 697 mmHg 22%
    09:00 +34°C° 0 mm 2 m/s 697 mmHg 15%
    10:00 +36°C° 0.3 mm 3 m/s 697 mmHg 15%
    11:00 +37°C° 0.3 mm 3 m/s 697 mmHg 15%
    12:00 +38°C° 0.3 mm 4 m/s 697 mmHg 15%
    13:00 +38°C° 0.1 mm 4 m/s 697 mmHg 15%
    14:00 +40°C° 0.1 mm 4 m/s 696 mmHg 15%
    15:00 +40°C° 0.1 mm 4 m/s 696 mmHg 15%
    16:00 +38°C° 0 mm 4 m/s 696 mmHg 17%
    17:00 +37°C° 0 mm 5 m/s 696 mmHg 18%
    18:00 +36°C° 0 mm 5 m/s 695 mmHg 19%
    19:00 +33°C° 0 mm 4 m/s 695 mmHg 23%
    20:00 +30°C° 0 mm 3 m/s 695 mmHg 27%
    21:00 +27°C° 0 mm 2 m/s 695 mmHg 31%
    22:00 +26°C° 0 mm 2 m/s 695 mmHg 32%
    23:00 +25°C° 0 mm 1 m/s 695 mmHg 33%

    24 Iulie, Miercuri

    Timp Temperatura Precipitaţii Vânt Presiune Umiditate
    00:00 +25°C° 0 mm 1 m/s 695 mmHg 34%
    01:00 +24°C° 0 mm 1 m/s 694 mmHg 34%
    02:00 +24°C° 0 mm 1 m/s 694 mmHg 35%
    03:00 +23°C° 0 mm 1 m/s 694 mmHg 35%
    04:00 +23°C° 0 mm 1 m/s 694 mmHg 36%
    05:00 +23°C° 0 mm 1 m/s 694 mmHg 36%
    06:00 +24°C° 0 mm 1 m/s 694 mmHg 36%
    07:00 +27°C° 0 mm 1 m/s 695 mmHg 30%
    08:00 +30°C° 0 mm 1 m/s 695 mmHg 24%
    09:00 +33°C° 0 mm 1 m/s 696 mmHg 19%
    10:00 +35°C° 0 mm 1 m/s 696 mmHg 17%
    11:00 +38°C° 0 mm 2 m/s 696 mmHg 15%
    12:00 +39°C° 0 mm 3 m/s 696 mmHg 13%
    13:00 +40°C° 0 mm 3 m/s 696 mmHg 12%
    14:00 +41°C° 0 mm 4 m/s 695 mmHg 11%
    15:00 +42°C° 0 mm 5 m/s 695 mmHg 10%
    16:00 +41°C° 0 mm 5 m/s 695 mmHg 12%
    17:00 +40°C° 0 mm 4 m/s 694 mmHg 13%
    18:00 +38°C° 0 mm 4 m/s 694 mmHg 15%
    19:00 +35°C° 0 mm 3 m/s 694 mmHg 20%
    20:00 +31°C° 0 mm 3 m/s 694 mmHg 26%
    21:00 +28°C° 0 mm 2 m/s 694 mmHg 32%
    22:00 +27°C° 0 mm 2 m/s 694 mmHg 34%
    23:00 +26°C° 0 mm 2 m/s 694 mmHg 36%

    25 Iulie, Joi

    Timp Temperatura Precipitaţii Vânt Presiune Umiditate
    00:00 +25°C° 0 mm 1 m/s 693 mmHg 38%
    01:00 +24°C° 0 mm 1 m/s 693 mmHg 41%
    02:00 +24°C° 0 mm 1 m/s 693 mmHg 44%
    03:00 +23°C° 0 mm 1 m/s 693 mmHg 47%
    04:00 +23°C° 0 mm 1 m/s 693 mmHg 49%
    05:00 +23°C° 0 mm 1 m/s 693 mmHg 51%
    06:00 +23°C° 0 mm 1 m/s 693 mmHg 53%
    07:00 +26°C° 0 mm 1 m/s 694 mmHg 47%
    08:00 +28°C° 0 mm 2 m/s 694 mmHg 40%
    09:00 +30°C° 0 mm 2 m/s 695 mmHg 34%
    10:00 +33°C° 0 mm 3 m/s 695 mmHg 28%
    11:00 +35°C° 0 mm 3 m/s 695 mmHg 21%
    12:00 +37°C° 0 mm 4 m/s 695 mmHg 15%
    13:00 +39°C° 0 mm 5 m/s 695 mmHg 14%
    14:00 +39°C° 0 mm 5 m/s 694 mmHg 13%
    15:00 +40°C° 0 mm 6 m/s 694 mmHg 12%
    16:00 +39°C° 0 mm 6 m/s 694 mmHg 12%
    17:00 +38°C° 0 mm 6 m/s 694 mmHg 12%
    18:00 +36°C° 0 mm 6 m/s 693 mmHg 12%
    19:00 +34°C° 0 mm 5 m/s 693 mmHg 15%
    20:00 +30°C° 0 mm 4 m/s 693 mmHg 18%
    21:00 +27°C° 0 mm 2 m/s 694 mmHg 21%
    22:00 +26°C° 0 mm 2 m/s 693 mmHg 26%
    23:00 +25°C° 0 mm 2 m/s 693 mmHg 30%

    26 Iulie, Vineri

    Timp Temperatura Precipitaţii Vânt Presiune Umiditate
    00:00 +24°C° 0 mm 2 m/s 693 mmHg 35%
    01:00 +23°C° 0 mm 2 m/s 693 mmHg 43%
    02:00 +22°C° 0 mm 1 m/s 693 mmHg 50%
    03:00 +21°C° 0 mm 1 m/s 692 mmHg 57%
    04:00 +21°C° 0 mm 1 m/s 692 mmHg 58%
    05:00 +21°C° 0 mm 1 m/s 693 mmHg 59%
    06:00 +21°C° 0 mm 1 m/s 693 mmHg 60%
    07:00 +24°C° 0 mm 1 m/s 694 mmHg 53%
    08:00 +26°C° 0 mm 2 m/s 694 mmHg 46%
    09:00 +28°C° 0 mm 2 m/s 695 mmHg 39%
    10:00 +30°C° 0 mm 3 m/s 695 mmHg 35%
    11:00 +33°C° 0 mm 4 m/s 695 mmHg 30%
    12:00 +35°C° 0 mm 5 m/s 695 mmHg 25%
    13:00 +35°C° 0 mm 5 m/s 695 mmHg 22%
    14:00 +36°C° 0 mm 5 m/s 695 mmHg 19%
    15:00 +37°C° 0 mm 5 m/s 695 mmHg 17%
    16:00 +36°C° 0 mm 4 m/s 695 mmHg 16%
    17:00 +36°C° 0 mm 4 m/s 695 mmHg 16%
    18:00 +35°C° 0 mm 3 m/s 694 mmHg 15%
    19:00 +31°C° 0 mm 2 m/s 694 mmHg 18%
    20:00 +28°C° 0 mm 2 m/s 694 mmHg 21%
    21:00 +25°C° 0 mm 1 m/s 694 mmHg 24%
    22:00 +25°C° 0 mm 1 m/s 694 mmHg 27%
    23:00 +24°C° 0 mm 1 m/s 694 mmHg 30%
    Arată mai mult